Theta_e
314 315 315 314 313 314 312 313 309 312 312 317 320 322 323 325 330 333 336 339 343 347 350 352 354 357 362 355 356 356 363 361 365 367 366 367 369 369 369 372 368 369 368 368
311 315 315 312 313 314 313 314 314 314 313 321 325 325 325 327 330 333 336 338 342 344 349 352 354 356 357 360 363 360 366 363 369 371 370 370 370 370 371 368 369 370 367 367
307 313 312 308 312 313 314 316 315 310 316 322 321 322 322 326 328 329 332 335 340 341 345 354 355 358 357 359 361 368 370 367 370 373 372 374 374 373 368 368 370 369 366 364
306 309 300 311 316 315 312 314 316 316 318 320 322 324 325 329 327 328 330 332 337 341 346 354 356 358 359 359 363 363 366 367 370 372 371 373 373 373 375 372 368 368 361 359
301 301 305 307 310 309 308 308 317 317 318 321 323 324 325 330 329 329 330 332 333 337 343 349 357 360 360 357 358 359 361 366 369 371 371 371 370 373 373 368 363 359 357 355
303 298 296 307 315 318 316 305 320 320 320 321 322 314 321 328 329 329 331 332 331 334 338 344 350 355 358 357 356 357 359 366 371 372 372 371 373 370 370 363 357 355 352 349
302 300 303 311 316 316 303 307 318 319 320 321 320 323 327 327 327 329 329 329 331 333 335 343 349 353 356 357 357 360 362 366 369 372 375 372 370 362 359 360 354 349 345 345
304 301 298 317 314 308 315 317 318 319 320 320 323 324 324 325 326 327 327 328 330 331 333 339 345 351 351 356 360 363 364 366 369 372 366 365 361 356 359 349 346 343 341 341
307 307 317 318 316 319 318 316 317 319 319 319 319 320 322 323 323 325 327 329 329 330 332 335 341 346 350 354 361 362 354 353 357 361 363 360 353 353 349 347 344 341 338 336
308 311 313 313 316 317 319 317 317 318 318 318 316 318 319 322 323 323 325 327 329 329 330 333 337 341 346 354 360 360 349 345 346 352 354 353 352 353 349 346 344 340 335 333
308 311 312 313 314 315 315 315 315 317 317 317 317 317 318 319 322 323 325 327 329 329 329 331 336 339 343 350 354 352 346 342 347 346 350 351 327 331 334 327 328 339 334 330
301 309 310 312 314 315 314 314 316 316 316 318 319 318 319 319 321 323 323 326 327 329 329 330 333 336 341 345 349 346 343 340 340 339 338 343 328 313 304 304 302 299 301 317
309 313 313 314 314 313 313 313 313 314 316 315 318 319 320 320 323 322 324 325 325 326 328 332 333 335 339 342 348 340 340 338 335 335 337 334 320 321 308 304 301 299 299 298
314 314 310 311 309 313 314 316 316 315 316 317 318 320 321 321 323 325 324 328 330 331 333 333 333 334 338 339 345 338 339 323 335 334 335 332 325 320 316 313 312 309 302 304
312 311 310 312 312 313 315 315 314 313 315 315 319 320 320 320 319 323 326 328 328 328 333 332 334 334 337 337 338 333 335 332 328 329 329 325 327 322 318 319 317 314 312 306
310 309 310 310 312 314 315 315 312 314 317 318 317 316 320 321 322 321 324 331 328 326 329 332 333 335 336 333 334 329 331 326 325 327 325 327 325 323 324 323 319 316 315 315
308 308 310 311 311 312 311 314 315 316 316 317 317 318 319 318 321 322 322 325 329 332 334 333 333 334 331 329 328 328 328 327 326 326 325 325 327 326 323 320 317 314 312 307
313 313 312 310 312 310 310 311 313 315 315 317 319 318 319 318 318 324 326 326 328 330 332 330 329 330 329 328 327 324 324 325 324 323 323 323 325 324 321 318 317 313 309 308
312 312 312 311 311 311 311 312 314 314 315 316 317 316 319 320 320 321 325 325 327 328 329 326 322 319 321 323 321 323 319 315 313 312 312 311 311 313 315 316 316 314 311 310
313 313 311 311 312 312 311 311 311 312 313 314 316 318 317 320 321 323 325 327 328 334 331 326 324 318 316 316 316 315 314 313 311 310 310 310 308 308 311 305 307 310 308 308
311 311 310 308 308 310 311 314 317 315 316 319 318 318 320 321 324 326 327 329 331 331 329 322 320 319 317 316 317 315 311 309 312 310 310 310 308 309 307 308 309 310 309 309
312 309 309 309 309 309 312 317 317 317 318 318 320 321 321 322 325 327 329 329 325 314 317 317 314 313 314 313 312 311 312 309 309 308 308 308 307 307 309 308 307 307 307 309
313 309 309 309 309 311 312 315 316 316 317 315 316 319 322 326 329 326 320 320 317 311 312 311 311 311 311 312 311 309 311 311 309 309 311 311 311 310 309 309 309 309 308 307
313 312 311 311 314 313 310 311 313 315 316 318 318 318 317 325 319 327 320 311 308 310 310 308 307 308 308 307 308 308 308 308 310 311 311 306 312 311 309 309 309 309 307 306
314 316 315 315 313 310 313 313 312 313 312 313 312 314 317 319 312 311 311 308 306 306 305 305 306 308 309 310 309 310 309 309 310 311 311 311 310 310 310 309 309 308 310 311
315 312 314 315 317 319 315 314 310 311 311 309 309 309 309 310 310 309 308 307 309 308 309 308 309 312 311 309 309 308 309 308 309 309 308 310 310 309 309 308 307 309 310 310
312 305 311 311 314 317 312 316 310 310 311 311 309 310 309 308 306 306 305 307 308 311 312 311 311 310 310 310 309 309 310 310 306 310 309 309 309 309 309 309 310 310 310 310
Wind_Speed
19 20 18 12 15 13 14 13 15 14 17 14 12 11 8 8 11 11 10 10 11 12 12 10 8 8 8 12 14 15 14 15 15 14 14 13 13 12 12 11 11 10 9 8
20 20 17 22 18 19 19 19 20 19 19 15 9 6 9 8 9 10 11 13 13 14 11 12 10 10 10 10 11 12 13 14 12 13 13 12 12 12 11 11 10 9 8 5
19 15 18 25 19 21 18 21 19 20 16 6 5 6 5 7 8 10 12 13 12 13 12 10 10 10 12 12 11 11 12 13 12 12 13 12 11 10 11 10 10 8 7 5
15 18 23 15 16 14 10 14 17 15 12 6 6 8 4 10 8 8 10 12 14 14 14 11 11 8 10 12 12 13 12 13 13 13 13 12 11 10 10 10 9 6 7 5
15 16 20 17 8 8 12 13 7 8 3 1 5 9 1 9 7 8 10 10 12 14 15 13 11 10 7 10 14 14 14 13 13 14 13 13 12 11 10 9 9 8 6 6
13 18 19 13 11 9 6 11 13 8 7 7 7 10 7 9 9 10 10 11 12 13 15 13 13 13 9 9 13 13 14 13 12 13 13 13 12 11 9 11 10 9 7 7
14 15 19 14 8 3 10 4 7 8 7 7 8 9 15 12 11 11 11 12 13 13 11 15 14 12 13 12 12 12 13 11 11 12 12 12 13 12 12 11 9 10 9 7
13 17 21 11 4 7 8 5 7 7 9 10 9 11 13 14 13 13 13 13 13 12 12 11 14 11 13 13 12 10 6 8 12 14 12 15 17 13 12 13 12 11 10 9
10 11 6 3 4 4 6 8 10 8 8 12 14 15 15 13 15 14 15 13 12 12 12 12 12 12 14 14 13 10 8 6 6 6 12 15 15 14 13 13 12 11 10 9
14 15 15 9 2 4 14 14 10 14 16 17 20 20 18 15 15 14 15 14 13 13 12 11 12 14 14 12 14 8 6 7 12 9 10 11 9 13 12 12 12 11 9 10
15 16 17 16 16 14 15 16 17 17 19 20 21 21 21 17 17 17 15 15 13 13 12 13 11 12 13 12 11 5 2 4 7 9 12 11 11 4 8 14 8 8 8 8
6 10 13 14 16 20 21 22 21 21 21 21 18 18 19 18 17 17 17 16 14 14 15 14 12 12 12 12 9 7 7 5 5 3 6 5 8 8 28 18 23 24 19 8
11 14 15 17 17 18 20 17 16 18 17 15 18 19 21 18 17 17 18 18 17 17 16 14 13 12 12 10 11 7 11 8 8 7 5 5 7 8 13 8 21 14 9 13
8 13 16 16 14 14 18 22 21 18 19 17 20 16 20 19 18 17 16 16 16 15 15 15 13 13 11 11 12 7 10 12 10 8 9 8 8 8 10 10 11 10 2 3
13 11 15 15 14 17 16 17 20 16 14 15 17 19 19 19 14 14 13 16 15 16 15 12 11 14 10 10 10 9 8 8 8 7 7 9 9 11 9 8 8 9 10 7
17 17 17 15 17 21 21 20 20 20 18 17 16 14 20 20 14 11 13 12 11 12 13 11 12 11 5 9 10 8 7 13 12 9 8 10 11 11 10 9 8 8 7 7
17 18 19 21 21 22 21 22 19 21 20 21 21 18 20 18 18 16 10 13 14 8 11 11 10 8 6 9 9 7 6 7 12 10 9 7 6 7 9 8 8 7 6 3
16 16 17 20 21 17 18 20 18 22 23 23 22 19 20 20 17 18 13 11 13 6 8 6 7 8 7 6 3 3 4 8 8 7 2 3 5 5 8 8 9 8 6 4
14 15 21 20 15 16 17 19 21 21 22 23 23 21 21 21 17 17 15 11 11 11 7 5 5 6 5 8 6 4 8 8 11 9 9 10 7 5 4 7 8 9 9 6
16 16 18 16 16 18 18 20 21 19 18 17 21 20 18 19 16 16 15 12 10 8 7 10 10 9 7 12 13 9 10 9 7 11 9 9 6 9 5 5 7 6 8 5
15 16 17 15 18 20 16 16 14 12 13 16 15 16 17 15 16 14 11 8 8 7 10 16 8 7 6 9 10 10 8 8 7 9 7 9 10 10 7 7 8 7 7 7
11 10 14 16 18 16 16 17 14 13 8 10 10 10 10 12 12 12 10 5 7 13 8 8 7 12 9 13 7 7 9 9 7 7 7 8 7 7 8 8 8 8 6 6
10 8 11 14 15 15 15 16 16 16 15 11 11 11 10 8 7 7 4 7 9 11 9 8 16 17 12 6 8 6 8 10 10 9 7 6 7 8 9 9 8 8 8 7
10 8 10 10 11 12 14 15 14 13 15 14 12 10 9 7 5 4 9 10 19 14 12 11 11 11 8 9 9 8 7 8 8 7 6 5 6 8 9 9 9 9 9 9
10 11 10 10 10 7 11 11 11 11 13 8 10 10 6 6 6 6 8 10 17 16 12 16 12 10 5 6 9 9 10 10 9 7 8 8 8 9 9 9 9 9 7 8
7 8 7 10 9 7 8 7 7 10 11 9 9 8 10 8 10 10 10 12 12 12 10 9 8 10 9 9 10 11 10 11 10 9 9 9 9 8 8 8 8 6 6 6
5 5 9 8 10 7 7 9 7 9 10 11 11 10 12 11 13 11 11 7 7 8 11 11 11 11 11 9 9 10 9 9 9 9 9 8 7 7 8 8 7 6 6 6
Wind_Direction
281 290 295 291 276 266 265 271 269 285 295 313 338 4 344 346 353 356 0 1 359 348 331 297 239 230 229 214 213 203 191 195 197 202 202 202 199 209 215 214 220 227 225 224
277 283 284 281 262 267 271 273 273 275 278 292 42 2 351 355 354 2 9 7 360 352 330 315 262 243 235 228 234 220 189 198 197 195 199 201 203 201 205 208 213 209 216 225
264 263 271 262 257 257 268 273 267 267 278 30 346 10 337 13 13 8 4 0 0 348 336 320 292 248 239 230 225 232 202 197 198 193 197 189 190 195 199 202 200 186 189 127
275 284 258 273 291 319 313 303 309 305 304 25 359 336 309 71 21 4 8 356 353 353 349 333 319 267 249 239 223 223 220 203 198 194 193 183 188 192 188 188 177 151 135 156
259 255 265 266 254 265 267 263 345 315 308 284 346 325 182 78 11 1 353 345 344 340 340 357 346 327 297 255 248 221 216 211 202 192 189 185 190 186 174 153 130 132 137 163
251 265 268 279 52 21 312 248 26 355 325 324 328 279 72 3 346 348 342 340 341 336 330 355 352 328 310 277 245 230 226 209 199 187 186 182 174 153 141 140 132 140 133 112
237 250 263 292 74 68 252 47 2 355 334 312 300 337 329 325 336 337 335 342 343 338 345 347 337 348 327 298 271 253 237 205 189 182 171 160 136 130 139 148 146 120 137 144
245 261 263 26 307 275 43 2 343 331 328 319 309 306 306 312 320 323 325 331 338 337 346 337 328 337 323 309 308 287 287 182 193 180 168 148 138 141 152 127 131 144 157 170
325 336 37 23 54 41 327 324 313 296 304 311 301 297 297 304 310 314 313 324 321 326 332 335 332 332 319 312 313 276 248 161 166 161 159 156 145 149 143 147 155 165 174 165
279 288 299 308 84 295 301 300 321 305 301 296 297 297 292 293 300 305 306 303 310 312 316 317 327 319 305 321 304 264 196 187 171 184 179 158 154 152 165 169 169 162 172 173
280 279 292 298 312 335 313 302 292 287 288 289 287 285 288 287 287 288 290 290 291 298 305 307 306 306 305 306 300 242 162 216 243 136 163 156 79 85 46 5 328 157 166 155
319 349 317 311 317 318 307 298 294 293 284 281 279 280 278 277 280 280 279 280 283 285 291 289 294 295 297 297 289 241 185 160 156 189 115 150 104 83 79 64 2 33 17 82
318 326 304 302 297 287 294 303 306 307 309 292 285 289 286 281 281 281 280 274 272 273 279 287 287 284 287 284 280 249 189 176 159 164 166 156 119 129 107 62 96 47 26 70
296 292 288 298 305 300 299 297 294 277 270 280 281 270 273 274 275 272 268 267 265 269 271 274 278 279 283 283 272 257 222 164 170 171 165 156 153 146 140 156 143 134 173 107
305 312 303 294 303 297 292 303 290 275 277 294 301 290 273 273 277 282 282 271 267 266 264 273 287 278 270 271 264 271 220 178 161 147 141 148 168 155 167 170 163 134 134 148
299 298 291 305 300 304 302 295 295 290 291 281 279 273 286 280 264 272 280 263 264 264 282 278 274 279 303 260 257 255 215 188 156 160 155 160 165 167 164 155 134 149 148 128
314 319 323 314 304 304 297 296 288 284 280 284 282 276 280 282 281 265 266 270 269 230 265 279 287 288 267 253 238 242 188 189 165 153 171 156 175 163 155 143 142 136 116 45
335 334 313 318 311 302 287 288 284 285 286 286 285 283 273 264 269 264 252 257 265 272 268 269 282 282 257 226 174 125 129 149 143 128 133 157 142 147 146 154 140 127 114 125
306 331 328 310 301 294 288 288 289 291 285 277 272 268 265 259 252 263 252 244 247 248 225 207 114 76 84 103 80 89 93 94 102 101 98 77 64 26 2 141 130 133 140 144
326 322 323 316 304 300 296 293 285 275 269 265 268 261 256 256 250 247 248 240 234 246 162 164 150 117 100 101 97 91 88 93 100 113 118 108 131 117 200 113 122 127 105 133
327 330 332 326 317 310 300 293 296 280 271 282 254 248 245 248 252 249 244 242 233 202 142 143 142 134 125 123 124 118 123 115 127 117 152 128 142 140 161 157 120 135 127 132
322 348 331 317 315 319 327 327 340 338 327 330 313 284 256 258 254 252 264 194 111 113 121 127 128 119 116 107 98 104 119 123 139 127 114 148 148 150 133 119 124 120 146 141
326 333 311 309 315 322 319 344 349 347 348 344 334 319 296 272 260 245 156 121 126 116 115 116 131 121 119 116 119 134 144 141 139 141 170 148 149 136 137 148 141 141 139 136
314 295 285 294 313 325 337 337 331 334 335 338 335 324 300 268 57 49 102 120 122 116 113 116 119 129 124 126 127 133 115 99 109 118 81 83 120 122 122 147 141 137 140 167
311 315 312 325 336 326 329 334 343 344 334 334 342 328 334 90 92 95 97 100 111 113 115 120 116 87 69 92 115 117 126 130 131 136 152 148 136 145 139 134 131 141 149 134
354 331 346 335 332 12 1 6 354 347 354 21 20 37 63 68 87 84 80 93 97 110 122 143 159 148 144 142 137 133 120 117 130 132 136 136 127 129 136 121 130 149 128 124
23 307 358 349 3 36 13 32 6 3 16 17 33 48 57 61 61 65 68 78 105 147 158 155 153 131 127 138 116 117 130 121 125 131 127 134 139 136 136 150 155 144 146 145